{"data":{"norad_id":56409,"intl_designator":"2023-061AM","name":"STARLINK-6241","alt_names":[],"object_type":"PAYLOAD","status":"ACTIVE","operator":null,"country":"US","launch_date":"2023-05-04","launch_site_code":"AFETR","launch_vehicle":null,"mission":null,"orbit_class":"UNKNOWN","rcs_meters":null,"size_class":null,"mass_kg":null,"dimensions":null,"purposes":["comms"],"wikipedia_slug":null,"has_3d_model":false,"image_url":null,"decayed_at":null,"tle_current":{"epoch":"2026-09-20T10:08:25.683936Z","epoch_age_seconds":118622,"freshness":"FRESH","line1":"1 56409U 23061AM  26263.42251949 -.00000031  00000+0  83849-5 0  9992","line2":"2 56409  43.0012 167.5299 0000851 257.2626 102.8131 15.27576603186653","mean_motion":15.27576603,"eccentricity":8.51e-5,"inclination_deg":43.0012,"raan_deg":167.5299,"arg_perigee_deg":257.2626,"mean_anomaly_deg":102.8131,"bstar":8.3849e-6,"rev_number":18665,"period_min":94.266958342514,"perigee_km":482.47538009617,"apogee_km":483.64315570097,"semimajor_km":6861.1962678986,"source":"CELESTRAK","updated_at":"2026-09-21T09:00:33.436480Z"}}}